Mount Pleasant, TN

9:14 AM CST on February 21, 2017 (GMT -0600)
Maury County

Weather History for KMRC - March, 2014

Change the Weather History Date:

Saturday, March 22, 2014

  Actual Average (KBNA) Record (KBNA)
Temperature  
Mean Temperature 57 °F -  
Max Temperature 68 °F 61 °F 88 °F (1907)
Min Temperature 46 °F 38 °F 14 °F (1876)
Degree Days  
Heating Degree Days 8    
Growing Degree Days 7 (Base 50)    
Moisture  
Dew Point 41 °F    
Average Humidity 58    
Maximum Humidity 82    
Minimum Humidity 46    
Precipitation  
Precipitation 0.00 in - - ()
Sea Level Pressure  
Sea Level Pressure 30.02 in    
Wind  
Wind Speed 3 mph (North)    
Max Wind Speed 10 mph    
Max Gust Speed 20 mph    
Visibility 10 miles    
Events      
Averages and records for this station are not official NWS values.
T = Trace of Precipitation, MM = Missing Value Source: NWS Daily Summary

Daily Weather History Graph

Daily Weather History Graph

Search for Another Location

Airport or City:

Trip Planner

Search our weather history database for the weather conditions in past years. The results will help you decide how hot, cold, wet, or windy it might be!

Date:

Astronomy

Mar. 22, 2014 Rise Set
Actual Time 6:49 AM CDT 7:02 PM CDT
Civil Twilight 6:24 AM CDT 7:27 PM CDT
Nautical Twilight 5:54 AM CDT 7:57 PM CDT
Astronomical Twilight 5:24 AM CDT 8:27 PM CDT
Moon 12:11 AM CDT (3/22) 10:42 AM CDT (3/22)
Length of Visible Light 13h 03m
Length of Day
12h 12m
Waning Gibbous, 65% of the Moon is Illuminated
Mar 22
Waning Gibbous
Mar 23
Last Quarter
Mar 30
New
Apr 7
First Quarter
Apr 15
Full

Hourly Weather History & Observations

Time (CDT) Temp. Dew Point Humidity Pressure Visibility Wind Dir Wind Speed Gust Speed Precip Events Conditions
12:35 AM 53.6 °F 37.4 °F 54% 29.97 in 10.0 mi SW 5.8 mph - N/A   Clear
12:55 AM 53.6 °F 37.4 °F 54% 29.97 in 10.0 mi SSW 5.8 mph - N/A   Clear
1:15 AM 53.6 °F 37.4 °F 54% 29.96 in 10.0 mi Calm Calm - N/A   Clear
1:35 AM 50.0 °F 37.4 °F 62% 29.96 in 10.0 mi Calm Calm - N/A   Clear
1:55 AM 50.0 °F 37.4 °F 62% 29.96 in 10.0 mi Calm Calm - N/A   Clear
2:15 AM 51.8 °F 37.4 °F 58% 29.96 in 10.0 mi Calm Calm - N/A   Clear
2:35 AM 48.2 °F 37.4 °F 66% 29.95 in 10.0 mi Calm Calm - N/A   Clear
2:55 AM 48.2 °F 37.4 °F 66% 29.95 in 10.0 mi Calm Calm - N/A   Clear
3:15 AM 48.2 °F 37.4 °F 66% 29.95 in 10.0 mi Calm Calm - N/A   Clear
3:35 AM 46.4 °F 37.4 °F 71% 29.94 in 10.0 mi Calm Calm - N/A   Clear
3:55 AM 48.2 °F 37.4 °F 66% 29.94 in 10.0 mi Calm Calm - N/A   Clear
4:15 AM 48.2 °F 37.4 °F 66% 29.95 in 10.0 mi Calm Calm - N/A   Clear
4:35 AM 51.8 °F 37.4 °F 58% 29.95 in 10.0 mi Calm Calm - N/A   Scattered Clouds
4:55 AM 50.0 °F 39.2 °F 66% 29.94 in 10.0 mi Calm Calm - N/A   Mostly Cloudy
5:15 AM 48.2 °F 39.2 °F 71% 29.95 in 10.0 mi SSW 3.5 mph - N/A   Partly Cloudy
5:35 AM 48.2 °F 39.2 °F 71% 29.95 in 10.0 mi SSW 3.5 mph - N/A   Clear
5:55 AM 48.2 °F 37.4 °F 66% 29.95 in 10.0 mi Calm Calm - N/A   Clear
6:15 AM 51.8 °F 39.2 °F 62% 29.99 in 10.0 mi North 6.9 mph 19.6 mph N/A   Clear
6:35 AM 51.8 °F 39.2 °F 62% 30.00 in 10.0 mi Calm Calm - N/A   Clear
6:55 AM 48.2 °F 42.8 °F 82% 30.00 in 10.0 mi Calm Calm - N/A   Clear
7:15 AM 50.0 °F 41.0 °F 71% 30.01 in 10.0 mi Calm Calm - N/A   Clear
7:35 AM 48.2 °F 42.8 °F 82% 30.01 in 10.0 mi Calm Calm - N/A   Clear
7:55 AM 50.0 °F 44.6 °F 82% 30.03 in 10.0 mi Calm Calm - N/A   Partly Cloudy
8:15 AM 51.8 °F 44.6 °F 76% 30.02 in 10.0 mi Calm Calm - N/A   Mostly Cloudy
8:35 AM 51.8 °F 42.8 °F 71% 30.03 in 10.0 mi North 3.5 mph - N/A   Scattered Clouds
8:55 AM 51.8 °F 42.8 °F 71% 30.04 in 10.0 mi Calm Calm - N/A   Partly Cloudy
9:15 AM 53.6 °F 44.6 °F 72% 30.05 in 10.0 mi Calm Calm - N/A   Partly Cloudy
9:35 AM 55.4 °F 42.8 °F 63% 30.05 in 10.0 mi NE 5.8 mph - N/A   Clear
9:55 AM 57.2 °F 42.8 °F 59% 30.05 in 10.0 mi NE 6.9 mph - N/A   Clear
10:15 AM 57.2 °F 42.8 °F 59% 30.06 in 10.0 mi NE 9.2 mph - N/A   Clear
10:35 AM 59.0 °F 42.8 °F 55% 30.06 in 10.0 mi NE 10.4 mph - N/A   Clear
10:55 AM 57.2 °F 42.8 °F 59% 30.07 in 10.0 mi NNE 5.8 mph - N/A   Clear
11:15 AM 57.2 °F 41.0 °F 55% 30.08 in 10.0 mi North 4.6 mph - N/A   Clear
11:35 AM 59.0 °F 41.0 °F 51% 30.08 in 10.0 mi NNE 5.8 mph - N/A   Partly Cloudy
11:55 AM 60.8 °F 42.8 °F 52% 30.08 in 10.0 mi NE 6.9 mph - N/A   Clear
12:15 PM 62.6 °F 42.8 °F 48% 30.08 in 10.0 mi North 6.9 mph - N/A   Partly Cloudy
12:35 PM 62.6 °F 42.8 °F 48% 30.07 in 10.0 mi Variable 3.5 mph - N/A   Partly Cloudy
12:55 PM 64.4 °F 44.6 °F 49% 30.07 in 10.0 mi NE 9.2 mph - N/A   Partly Cloudy
1:15 PM 64.4 °F 44.6 °F 49% 30.04 in 10.0 mi Variable 4.6 mph - N/A   Partly Cloudy
1:35 PM 64.4 °F 44.6 °F 49% 30.03 in 10.0 mi Variable 4.6 mph - N/A   Partly Cloudy
1:55 PM 66.2 °F 44.6 °F 46% 30.03 in 10.0 mi NNE 3.5 mph - N/A   Partly Cloudy
2:15 PM 66.2 °F 46.4 °F 49% 30.03 in 10.0 mi Variable 6.9 mph - N/A   Partly Cloudy
2:35 PM 66.2 °F 46.4 °F 49% 30.02 in 10.0 mi North 8.1 mph - N/A   Scattered Clouds
2:55 PM 66.2 °F 44.6 °F 46% 30.02 in 10.0 mi Variable 4.6 mph - N/A   Partly Cloudy
3:15 PM 66.2 °F 46.4 °F 49% 30.01 in 10.0 mi North 6.9 mph - N/A   Partly Cloudy
3:35 PM 66.2 °F 46.4 °F 49% 30.01 in 10.0 mi North 5.8 mph - N/A   Mostly Cloudy
3:55 PM 68.0 °F 46.4 °F 46% 30.01 in 10.0 mi Variable 3.5 mph - N/A   Mostly Cloudy
4:15 PM 68.0 °F 46.4 °F 46% 30.01 in 10.0 mi NNW 5.8 mph - N/A   Mostly Cloudy
4:35 PM 66.2 °F 46.4 °F 49% 30.01 in 10.0 mi North 3.5 mph - N/A   Mostly Cloudy
4:55 PM 66.2 °F 46.4 °F 49% 30.01 in 10.0 mi NW 4.6 mph - N/A   Overcast
5:15 PM 66.2 °F 46.4 °F 49% 30.02 in 10.0 mi NNW 5.8 mph - N/A   Overcast
5:35 PM 66.2 °F 44.6 °F 46% 30.03 in 10.0 mi North 8.1 mph - N/A   Overcast
5:55 PM 66.2 °F 44.6 °F 46% 30.02 in 10.0 mi North 5.8 mph - N/A   Overcast
6:15 PM 64.4 °F 44.6 °F 49% 30.04 in 10.0 mi North 5.8 mph - N/A   Mostly Cloudy
6:35 PM 62.6 °F 44.6 °F 52% 30.05 in 10.0 mi North 6.9 mph - N/A   Mostly Cloudy
6:55 PM 62.6 °F 44.6 °F 52% 30.04 in 10.0 mi North 6.9 mph - N/A   Mostly Cloudy
7:15 PM 60.8 °F 44.6 °F 55% 30.04 in 10.0 mi North 4.6 mph - N/A   Clear
7:35 PM 59.0 °F 42.8 °F 55% 30.05 in 10.0 mi North 4.6 mph - N/A   Partly Cloudy
7:55 PM 59.0 °F 42.8 °F 55% 30.05 in 10.0 mi North 4.6 mph - N/A   Partly Cloudy
8:15 PM 57.2 °F 42.8 °F 59% 30.05 in 10.0 mi North 5.8 mph - N/A   Partly Cloudy
8:35 PM 57.2 °F 41.0 °F 55% 30.06 in 10.0 mi North 4.6 mph - N/A   Mostly Cloudy
8:55 PM 57.2 °F 39.2 °F 51% 30.06 in 10.0 mi North 4.6 mph - N/A   Overcast
9:15 PM 55.4 °F 39.2 °F 54% 30.07 in 10.0 mi North 5.8 mph - N/A   Overcast
9:35 PM 55.4 °F 37.4 °F 51% 30.08 in 10.0 mi North 8.1 mph - N/A   Mostly Cloudy
9:55 PM 55.4 °F 37.4 °F 51% 30.08 in 10.0 mi NNE 8.1 mph - N/A   Mostly Cloudy
10:15 PM 53.6 °F 37.4 °F 54% 30.08 in 10.0 mi North 4.6 mph - N/A   Mostly Cloudy
10:35 PM 53.6 °F 37.4 °F 54% 30.08 in 10.0 mi NNE 5.8 mph - N/A   Overcast
10:55 PM 53.6 °F 37.4 °F 54% 30.08 in 10.0 mi North 6.9 mph - N/A   Overcast
11:15 PM 53.6 °F 37.4 °F 54% 30.08 in 10.0 mi NNE 5.8 mph - N/A   Overcast
11:35 PM 53.6 °F 37.4 °F 54% 30.08 in 10.0 mi North 6.9 mph - N/A   Overcast
11:55 PM 53.6 °F 37.4 °F 54% 30.07 in 10.0 mi NNE 5.8 mph - N/A   Overcast